Location: Zagreb
(45.8000°N, 16.0000°E)
Time: 12:30:07
(UTC+01:00)

Vanguard 1 Rocket - Pass Details

Date: 08 October 2020
Orbit: 656 x 4221 km, 34.3° (Epoch: 28 October)

Event Time Altitude Azimuth Distance (km) Brightness Sun altitude
Rises 23:18:13 0° 275° (W) 6,459 12.1 -46.4°
Reaches altitude 10° 23:23:27 10° 262° (W) 5,970 11.7 -46.9°
Enters shadow 23:36:49 23° 220° (SW) 5,893 11.2 -48.0°
Maximum altitude 23:36:57 23° 219° (SW) 5,900 - -48.0°
Drops below altitude 10° 23:53:49 10° 178° (S) 7,416 - -49.1°
Sets 00:01:51 0° 166° (SSE) 8,348 - -49.5°
